Tracking 20083 objects as of 8-Dec-2019
HD Live streaming from Space Station
objects crossing your sky now

COSMOS 1066

Track COSMOS 1066 now!
10-day predictions
COSMOS 1066 is classified as:


NORAD ID: 11165
Int'l Code: 1978-121A
Perigee: 824.9 km
Apogee: 897.0 km
Inclination: 81.2 °
Period: 102.0 minutes
Semi major axis: 7231 km
RCS: 4.6495 m2 (large)
Launch date: December 23, 1978
Source: Commonwealth of Independent States (former USSR) (CIS)
Launch site: PLESETSK MISSILE AND SPACE COMPLEX (PKMTR)
aabbcc
Your satellite tracking list
Your tracking list is empty




NASA's NSSDC Master Catalog

Two Line Element Set (TLE):
1 11165U 78121A   19341.83878427 +.00000193 +00000-0 +97965-4 0  9991
2 11165 081.2397 064.1140 0049876 020.7809 339.5375 14.11619078625109
Source of the keplerian elements: AFSPC